Meteo orario Zagorzyce

Oggi, 29 Luglio, Giovedi

Tempo Temperatura Precipitazioni Vento Pressione Umidità
00:00 +20°C° 0.3 mm 3 m/s 737 mm Hg 88%
01:00 +19°C° 0.3 mm 3 m/s 738 mm Hg 96%
02:00 +19°C° 0.1 mm 3 m/s 738 mm Hg 96%
03:00 +19°C° 0.1 mm 3 m/s 738 mm Hg 95%
04:00 +19°C° 0.1 mm 3 m/s 738 mm Hg 95%
05:00 +20°C° 0.1 mm 3 m/s 738 mm Hg 93%
06:00 +20°C° 0.1 mm 3 m/s 739 mm Hg 91%
07:00 +21°C° 0.1 mm 3 m/s 739 mm Hg 89%
08:00 +22°C° 0.2 mm 4 m/s 739 mm Hg 81%
09:00 +23°C° 0.2 mm 4 m/s 739 mm Hg 74%
10:00 +25°C° 0.2 mm 4 m/s 739 mm Hg 66%
11:00 +26°C° 0 mm 4 m/s 739 mm Hg 62%
12:00 +27°C° 0 mm 4 m/s 739 mm Hg 57%
13:00 +28°C° 0 mm 4 m/s 739 mm Hg 53%
14:00 +28°C° 0 mm 4 m/s 739 mm Hg 52%
15:00 +28°C° 0 mm 3 m/s 739 mm Hg 51%
16:00 +28°C° 0 mm 3 m/s 739 mm Hg 50%
17:00 +26°C° 0 mm 3 m/s 739 mm Hg 56%
18:00 +25°C° 0 mm 2 m/s 738 mm Hg 63%
19:00 +23°C° 0 mm 2 m/s 738 mm Hg 70%
20:00 +21°C° 0 mm 2 m/s 739 mm Hg 72%
21:00 +21°C° 0 mm 1 m/s 739 mm Hg 74%
22:00 +20°C° 0 mm 1 m/s 739 mm Hg 76%
23:00 +20°C° 0 mm 1 m/s 739 mm Hg 78%

Domani, 30 Luglio, Venerdi

Tempo Temperatura Precipitazioni Vento Pressione Umidità
00:00 +19°C° 0 mm 1 m/s 739 mm Hg 79%
01:00 +19°C° 0 mm 1 m/s 739 mm Hg 81%
02:00 +19°C° 0 mm 1 m/s 739 mm Hg 81%
03:00 +18°C° 0 mm 1 m/s 739 mm Hg 81%
04:00 +18°C° 0 mm 1 m/s 738 mm Hg 81%
05:00 +20°C° 0 mm 1 m/s 739 mm Hg 76%
06:00 +22°C° 0 mm 1 m/s 739 mm Hg 71%
07:00 +23°C° 0 mm 1 m/s 739 mm Hg 65%
08:00 +25°C° 0 mm 2 m/s 739 mm Hg 60%
09:00 +26°C° 0 mm 2 m/s 739 mm Hg 55%
10:00 +28°C° 0 mm 2 m/s 739 mm Hg 50%
11:00 +29°C° 0 mm 2 m/s 738 mm Hg 49%
12:00 +30°C° 0 mm 2 m/s 738 mm Hg 47%
13:00 +30°C° 0 mm 2 m/s 737 mm Hg 45%
14:00 +30°C° 0 mm 2 m/s 737 mm Hg 46%
15:00 +30°C° 0 mm 1 m/s 737 mm Hg 47%
16:00 +30°C° 0 mm 1 m/s 736 mm Hg 48%
17:00 +29°C° 0 mm 1 m/s 736 mm Hg 55%
18:00 +27°C° 0 mm 1 m/s 736 mm Hg 61%
19:00 +25°C° 0 mm 1 m/s 736 mm Hg 67%
20:00 +24°C° 0.1 mm 1 m/s 736 mm Hg 71%
21:00 +23°C° 0.1 mm 1 m/s 736 mm Hg 75%
22:00 +22°C° 0.1 mm 1 m/s 736 mm Hg 79%
23:00 +21°C° 0.1 mm 1 m/s 736 mm Hg 81%

Dopodomani, 31 Luglio, Sabato

Tempo Temperatura Precipitazioni Vento Pressione Umidità
00:00 +21°C° 0.1 mm 1 m/s 736 mm Hg 82%
01:00 +20°C° 0.1 mm 1 m/s 736 mm Hg 84%
02:00 +20°C° 0 mm 1 m/s 736 mm Hg 84%
03:00 +20°C° 0 mm 1 m/s 736 mm Hg 84%
04:00 +20°C° 0 mm 1 m/s 736 mm Hg 85%
05:00 +21°C° 0 mm 1 m/s 736 mm Hg 80%
06:00 +23°C° 0 mm 1 m/s 736 mm Hg 76%
07:00 +24°C° 0 mm 1 m/s 736 mm Hg 72%
08:00 +26°C° 0 mm 2 m/s 735 mm Hg 66%
09:00 +28°C° 0 mm 2 m/s 735 mm Hg 60%
10:00 +29°C° 0 mm 3 m/s 735 mm Hg 53%
11:00 +27°C° 0.3 mm 3 m/s 735 mm Hg 64%
12:00 +25°C° 0.3 mm 4 m/s 735 mm Hg 75%
13:00 +22°C° 0.3 mm 5 m/s 735 mm Hg 86%
14:00 +21°C° 2.1 mm 4 m/s 736 mm Hg 89%
15:00 +20°C° 2.1 mm 4 m/s 736 mm Hg 92%
16:00 +19°C° 2.1 mm 3 m/s 736 mm Hg 95%
17:00 +19°C° 0.3 mm 2 m/s 736 mm Hg 95%
18:00 +19°C° 0.3 mm 2 m/s 736 mm Hg 95%
19:00 +19°C° 0.3 mm 1 m/s 736 mm Hg 95%
20:00 +18°C° 0 mm 2 m/s 736 mm Hg 95%
21:00 +18°C° 0 mm 2 m/s 737 mm Hg 95%
22:00 +17°C° 0 mm 2 m/s 737 mm Hg 95%
23:00 +17°C° 0 mm 2 m/s 737 mm Hg 94%

1 Agosto, Domenica

Tempo Temperatura Precipitazioni Vento Pressione Umidità
00:00 +17°C° 0 mm 2 m/s 737 mm Hg 94%
01:00 +17°C° 0 mm 2 m/s 737 mm Hg 93%
02:00 +18°C° 0 mm 1 m/s 737 mm Hg 92%
03:00 +18°C° 0 mm 1 m/s 736 mm Hg 91%
04:00 +18°C° 0 mm 1 m/s 736 mm Hg 90%
05:00 +19°C° 0 mm 1 m/s 736 mm Hg 86%
06:00 +21°C° 0 mm 1 m/s 736 mm Hg 82%
07:00 +22°C° 0 mm 1 m/s 736 mm Hg 78%
08:00 +24°C° 0 mm 2 m/s 736 mm Hg 71%
09:00 +25°C° 0 mm 3 m/s 736 mm Hg 65%
10:00 +27°C° 0 mm 4 m/s 736 mm Hg 59%
11:00 +27°C° 0 mm 4 m/s 735 mm Hg 57%
12:00 +28°C° 0 mm 4 m/s 734 mm Hg 56%
13:00 +29°C° 0 mm 4 m/s 734 mm Hg 55%
14:00 +29°C° 0.1 mm 4 m/s 733 mm Hg 57%
15:00 +29°C° 0.1 mm 3 m/s 733 mm Hg 59%
16:00 +29°C° 0.1 mm 3 m/s 733 mm Hg 61%
17:00 +26°C° 0.4 mm 3 m/s 732 mm Hg 69%
18:00 +23°C° 0.4 mm 4 m/s 732 mm Hg 76%
19:00 +21°C° 0.4 mm 4 m/s 732 mm Hg 83%
20:00 +20°C° 2.8 mm 4 m/s 732 mm Hg 87%
21:00 +19°C° 2.8 mm 4 m/s 733 mm Hg 92%
22:00 +18°C° 2.8 mm 4 m/s 734 mm Hg 96%
23:00 +18°C° 0 mm 4 m/s 734 mm Hg 96%

2 Agosto, Lunedi

Tempo Temperatura Precipitazioni Vento Pressione Umidità
00:00 +17°C° 0 mm 4 m/s 734 mm Hg 95%
01:00 +16°C° 0 mm 3 m/s 734 mm Hg 95%
02:00 +16°C° 0 mm 3 m/s 734 mm Hg 95%
03:00 +16°C° 0 mm 3 m/s 734 mm Hg 95%
04:00 +16°C° 0 mm 3 m/s 735 mm Hg 95%
05:00 +15°C° 0.2 mm 4 m/s 735 mm Hg 95%
06:00 +14°C° 0.2 mm 4 m/s 736 mm Hg 95%
07:00 +14°C° 0.2 mm 5 m/s 736 mm Hg 95%
08:00 +14°C° 0.1 mm 5 m/s 737 mm Hg 93%
09:00 +15°C° 0.1 mm 5 m/s 737 mm Hg 91%
10:00 +15°C° 0.1 mm 4 m/s 738 mm Hg 89%
11:00 +18°C° 0.1 mm 4 m/s 738 mm Hg 79%
12:00 +20°C° 0.1 mm 4 m/s 738 mm Hg 69%
13:00 +21°C° 0.1 mm 3 m/s 738 mm Hg 59%
14:00 +21°C° 0.1 mm 3 m/s 738 mm Hg 59%
15:00 +22°C° 0.1 mm 3 m/s 738 mm Hg 59%
16:00 +22°C° 0.1 mm 3 m/s 738 mm Hg 59%
17:00 +21°C° 0 mm 2 m/s 738 mm Hg 65%
18:00 +19°C° 0 mm 2 m/s 738 mm Hg 70%
19:00 +19°C° 0 mm 1 m/s 738 mm Hg 76%
20:00 +17°C° 0 mm 2 m/s 738 mm Hg 78%
21:00 +17°C° 0 mm 2 m/s 738 mm Hg 79%
22:00 +16°C° 0 mm 2 m/s 739 mm Hg 81%
23:00 +16°C° 0 mm 2 m/s 739 mm Hg 82%

3 Agosto, Martedi

Tempo Temperatura Precipitazioni Vento Pressione Umidità
00:00 +15°C° 0 mm 2 m/s 739 mm Hg 84%
01:00 +15°C° 0 mm 2 m/s 739 mm Hg 85%
02:00 +15°C° 0 mm 2 m/s 739 mm Hg 86%
03:00 +14°C° 0 mm 2 m/s 739 mm Hg 87%
04:00 +14°C° 0 mm 2 m/s 739 mm Hg 88%
05:00 +16°C° 0 mm 1 m/s 739 mm Hg 82%
06:00 +18°C° 0 mm 1 m/s 740 mm Hg 76%
07:00 +20°C° 0 mm 1 m/s 740 mm Hg 71%
08:00 +22°C° 0 mm 1 m/s 740 mm Hg 65%
09:00 +23°C° 0 mm 1 m/s 740 mm Hg 59%
10:00 +25°C° 0 mm 2 m/s 740 mm Hg 53%
11:00 +25°C° 0 mm 2 m/s 739 mm Hg 51%
12:00 +26°C° 0 mm 2 m/s 739 mm Hg 49%
13:00 +27°C° 0 mm 2 m/s 739 mm Hg 46%
14:00 +27°C° 0 mm 2 m/s 739 mm Hg 47%
15:00 +27°C° 0 mm 1 m/s 738 mm Hg 47%
16:00 +27°C° 0 mm 1 m/s 738 mm Hg 48%
17:00 +25°C° 0.2 mm 1 m/s 738 mm Hg 58%
18:00 +22°C° 0.2 mm 1 m/s 738 mm Hg 69%
19:00 +19°C° 0.2 mm 2 m/s 738 mm Hg 79%
20:00 +19°C° 0.2 mm 1 m/s 738 mm Hg 82%
21:00 +19°C° 0.2 mm 1 m/s 738 mm Hg 84%
22:00 +18°C° 0.2 mm 1 m/s 738 mm Hg 87%
23:00 +18°C° 0 mm 1 m/s 738 mm Hg 88%
Mostrare altro

Abbiamo bisogno del tuo consenso

Meteoprog e i nostri fornitori di servizi possono memorizzare e accedere a dati personali come cookie, identificatori di dispositivi o altre tecnologie simili sul tuo dispositivo e possono elaborare tali dati per personalizzare i contenuti e gli annunci, nonché fornire funzionalità dei social media e analizzarne il traffico.

  • Archiviare e/o accedere alle informazioni sul tuo dispositivo

    Cookie, identificatori di dispositivi o altre informazioni possono essere memorizzati o resi accessibili sul tuo dispositivo per le finalità sopra indicate.

  • Annunci e contenuti personalizzati, misurazione di annunci e contenuti, approfondimenti sul pubblico e sviluppo di prodotti

    Gli annunci e i contenuti possono essere personalizzati in base a un profilo. È possibile aggiungere più dati per personalizzare meglio annunci e contenuti. È possibile misurare il rendimento degli annunci e dei contenuti. È possibile ricavare informazioni sul pubblico che ha visto gli annunci e i contenuti. Tali dati possono essere utilizzati per sviluppare o migliorare l'esperienza, i sistemi e il software dell'utente.

Cliccando su “Accetto”, acconsenti all'uso di cookie, identificatori di dispositivo, web beacon o altre tecnologie simili. Puoi modificare le impostazioni nel browser del tuo dispositivo.

Per determinati scopi, è possibile fare affidamento su interessi legali, piuttosto che sul consenso. Puoi approfondire questo argomento consultando la nostra Informativa sulla privacy e sui cookie.